Pittsburg, TX

2:15 AM CST on December 03, 2016 (GMT -0600)
Mount Pleasant

Weather History for KOSA - February, 2013

Change the Weather History Date:

Monday, February 25, 2013

  Actual Average (KGGG) Record (KGGG)
Temperature  
Mean Temperature 52 °F 53 °F  
Max Temperature 66 °F 64 °F 87 °F (1996)
Min Temperature 39 °F 41 °F 19 °F (1965)
Degree Days  
Heating Degree Days 12 13  
Month to date heating degree days 386  
Since 1 July heating degree days 1869  
Cooling Degree Days 0 0  
Month to date cooling degree days 0  
Year to date cooling degree days 4  
Growing Degree Days 2 (Base 50)    
Moisture  
Dew Point 41 °F    
Average Humidity 66    
Maximum Humidity 100    
Minimum Humidity 34    
Precipitation  
Precipitation 0.35 in 0.15 in 1.97 in (1939)
Month to date precipitation 3.58  
Year to date precipitation 6.90  
Snow  
Snow 0.00 in - - ()
Month to date snowfall  
Since 1 July snowfall  
Snow Depth -    
Sea Level Pressure  
Sea Level Pressure 29.57 in    
Wind  
Wind Speed 11 mph (SSE)    
Max Wind Speed 23 mph    
Max Gust Speed 33 mph    
Visibility 10 miles    
Events      
T = Trace of Precipitation, MM = Missing Value Source: NWS Daily Summary

Daily Weather History Graph

Daily Weather History Graph

Search for Another Location

Airport or City:

Trip Planner

Search our weather history database for the weather conditions in past years. The results will help you decide how hot, cold, wet, or windy it might be!

Date:

Astronomy

Feb. 25, 2013 Rise Set
Actual Time 6:52 AM CST 6:13 PM CST
Civil Twilight 6:27 AM CST 6:38 PM CST
Nautical Twilight 5:58 AM CST 7:07 PM CST
Astronomical Twilight 5:29 AM CST 7:36 PM CST
Moon 6:24 PM CST (2/25) 6:25 AM CST (2/25)
Length of Visible Light 12h 11m
Length of Day
11h 21m
Full, 100% of the Moon is Illuminated
Feb 25
Full
Feb 25
Full
Mar 4
Last Quarter
Mar 11
New
Mar 19
First Quarter

Hourly Weather History & Observations

Time (CST) Temp. Windchill Dew Point Humidity Pressure Visibility Wind Dir Wind Speed Gust Speed Precip Events Conditions
12:15 AM 51.8 °F - 41.0 °F 67% 29.75 in 10.0 mi East 8.1 mph - N/A   Scattered Clouds
12:35 AM 51.8 °F - 39.2 °F 62% 29.74 in 10.0 mi East 8.1 mph - N/A   Mostly Cloudy
12:55 AM 51.8 °F - 39.2 °F 62% 29.72 in 10.0 mi East 9.2 mph - N/A   Scattered Clouds
1:15 AM 51.8 °F - 39.2 °F 62% 29.71 in 10.0 mi East 8.1 mph - N/A   Clear
1:35 AM 50.0 °F - 39.2 °F 66% 29.67 in 10.0 mi East 11.5 mph - N/A   Clear
1:55 AM 51.8 °F - 39.2 °F 62% 29.67 in 10.0 mi ENE 8.1 mph - N/A   Clear
2:15 AM 50.0 °F - 39.2 °F 66% 29.68 in 10.0 mi ENE 8.1 mph - N/A   Scattered Clouds
2:35 AM 51.8 °F - 39.2 °F 62% 29.68 in 10.0 mi NE 6.9 mph - N/A   Overcast
2:55 AM 51.8 °F - 39.2 °F 62% 29.67 in 10.0 mi ENE 9.2 mph - N/A   Overcast
3:15 AM 51.8 °F - 39.2 °F 62% 29.66 in 10.0 mi NE 6.9 mph - N/A   Overcast
3:35 AM 50.0 °F - 39.2 °F 66% 29.65 in 10.0 mi ENE 10.4 mph - N/A   Mostly Cloudy
3:55 AM 50.0 °F - 39.2 °F 66% 29.66 in 10.0 mi ENE 8.1 mph - N/A   Mostly Cloudy
4:15 AM 50.0 °F - 39.2 °F 66% 29.66 in 10.0 mi ENE 6.9 mph - N/A   Overcast
4:35 AM 50.0 °F - 39.2 °F 66% 29.67 in 10.0 mi NE 6.9 mph - N/A   Mostly Cloudy
4:55 AM 50.0 °F - 39.2 °F 66% 29.67 in 10.0 mi NNE 8.1 mph - N/A   Overcast
5:15 AM 50.0 °F - 39.2 °F 66% 29.70 in 10.0 mi NNE 4.6 mph - N/A   Overcast
5:35 AM 50.0 °F - 41.0 °F 71% 29.68 in 10.0 mi NE 10.4 mph - N/A   Overcast
5:55 AM 50.0 °F - 41.0 °F 71% 29.68 in 10.0 mi ENE 8.1 mph - N/A   Overcast
6:15 AM 50.0 °F - 41.0 °F 71% 29.67 in 10.0 mi ENE 8.1 mph - N/A   Overcast
6:35 AM 50.0 °F - 41.0 °F 71% 29.66 in 10.0 mi ENE 12.7 mph - N/A   Overcast
6:55 AM 50.0 °F - 41.0 °F 71% 29.67 in 10.0 mi East 9.2 mph - N/A   Overcast
7:15 AM 50.0 °F - 42.8 °F 76% 29.64 in 10.0 mi ENE 10.4 mph - N/A   Overcast
7:35 AM 50.0 °F - 42.8 °F 76% 29.63 in 10.0 mi ENE 8.1 mph - N/A   Overcast
7:55 AM 50.0 °F - 42.8 °F 76% 29.63 in 10.0 mi ENE 10.4 mph - N/A   Overcast
8:15 AM 50.0 °F - 44.6 °F 82% 29.63 in 10.0 mi East 9.2 mph - N/A   Overcast
8:35 AM 50.0 °F - 44.6 °F 82% 29.63 in 10.0 mi East 9.2 mph - N/A   Overcast
8:55 AM 51.8 °F - 46.4 °F 82% 29.60 in 10.0 mi East 10.4 mph - N/A   Overcast
9:15 AM 51.8 °F - 46.4 °F 82% 29.59 in 10.0 mi East 9.2 mph 17.3 mph N/A   Overcast
9:35 AM 53.6 °F - 46.4 °F 77% 29.58 in 10.0 mi East 11.5 mph - N/A   Overcast
9:55 AM 53.6 °F - 46.4 °F 77% 29.56 in 10.0 mi ESE 13.8 mph - N/A   Overcast
10:15 AM 53.6 °F - 48.2 °F 82% 29.54 in 10.0 mi ESE 13.8 mph 19.6 mph N/A   Overcast
10:35 AM 53.6 °F - 50.0 °F 88% 29.54 in 10.0 mi ESE 10.4 mph 16.1 mph N/A   Overcast
10:55 AM 53.6 °F - 51.8 °F 94% 29.57 in 0.8 mi SW 12.7 mph - 0.35 in   Overcast
11:15 AM 53.6 °F - 53.6 °F 100% 29.55 in 10.0 mi SSE 9.2 mph - N/A   Mostly Cloudy
11:35 AM 53.6 °F - 53.6 °F 100% 29.53 in 10.0 mi SSE 6.9 mph - N/A   Overcast
11:55 AM 55.4 °F - 53.6 °F 94% 29.52 in 10.0 mi SSE 5.8 mph - N/A   Overcast
12:15 PM 55.4 °F - 53.6 °F 94% 29.51 in 7.0 mi SSE 8.1 mph - N/A   Overcast
12:35 PM 57.2 °F - 55.4 °F 94% 29.49 in 10.0 mi South 9.2 mph - N/A   Overcast
12:55 PM 60.8 °F - 55.4 °F 82% 29.49 in 10.0 mi South 13.8 mph - N/A   Mostly Cloudy
1:15 PM 62.6 °F - 55.4 °F 77% 29.47 in 10.0 mi South 11.5 mph 18.4 mph N/A   Scattered Clouds
1:35 PM 64.4 °F - 55.4 °F 73% 29.44 in 10.0 mi SW 9.2 mph 20.7 mph N/A   Scattered Clouds
1:55 PM 66.2 °F - 55.4 °F 68% 29.43 in 10.0 mi SW 16.1 mph 21.9 mph N/A   Scattered Clouds
2:15 PM 64.4 °F - 50.0 °F 59% 29.43 in 10.0 mi WSW 18.4 mph 26.5 mph N/A   Clear
2:35 PM 62.6 °F - 41.0 °F 45% 29.44 in 10.0 mi WSW 21.9 mph 29.9 mph N/A   Clear
2:55 PM 60.8 °F - 35.6 °F 39% 29.45 in 10.0 mi WSW 21.9 mph 33.4 mph N/A   Clear
3:15 PM 60.8 °F - 37.4 °F 42% 29.44 in 10.0 mi SW 20.7 mph 28.8 mph N/A   Clear
3:35 PM 60.8 °F - 35.6 °F 39% 29.44 in 10.0 mi SW 17.3 mph 33.4 mph N/A   Clear
3:55 PM 60.8 °F - 33.8 °F 36% 29.46 in 10.0 mi WSW 23.0 mph 29.9 mph N/A   Clear
4:15 PM 60.8 °F - 32.0 °F 34% 29.45 in 10.0 mi WSW 13.8 mph 28.8 mph N/A   Clear
4:35 PM 60.8 °F - 32.0 °F 34% 29.45 in 10.0 mi WSW 18.4 mph 23.0 mph N/A   Clear
4:55 PM 60.8 °F - 32.0 °F 34% 29.45 in 10.0 mi SW 18.4 mph 27.6 mph N/A   Clear
5:15 PM 59.0 °F - 32.0 °F 36% 29.45 in 10.0 mi SW 13.8 mph 20.7 mph N/A   Clear
5:35 PM 57.2 °F - 32.0 °F 38% 29.46 in 10.0 mi SW 9.2 mph 16.1 mph N/A   Clear
5:55 PM 55.4 °F - 32.0 °F 41% 29.46 in 10.0 mi WSW 18.4 mph 23.0 mph N/A   Clear
6:15 PM 55.4 °F - 33.8 °F 44% 29.48 in 10.0 mi SW 19.6 mph 25.3 mph N/A   Clear
6:35 PM 53.6 °F - 33.8 °F 47% 29.49 in 10.0 mi SW 19.6 mph 26.5 mph N/A   Clear
6:55 PM 53.6 °F - 32.0 °F 44% 29.49 in 10.0 mi WSW 18.4 mph 25.3 mph N/A   Clear
7:15 PM 51.8 °F - 32.0 °F 47% 29.51 in 10.0 mi SW 18.4 mph 29.9 mph N/A   Clear
7:35 PM 50.0 °F - 32.0 °F 50% 29.51 in 10.0 mi WSW 18.4 mph 26.5 mph N/A   Clear
7:55 PM 50.0 °F - 32.0 °F 50% 29.51 in 10.0 mi SW 18.4 mph 24.2 mph N/A   Scattered Clouds
8:15 PM 48.2 °F - 32.0 °F 54% 29.51 in 10.0 mi SW 15.0 mph 25.3 mph N/A   Scattered Clouds
8:35 PM 46.4 °F 39.8 °F 32.0 °F 57% 29.51 in 10.0 mi SW 16.1 mph 20.7 mph N/A   Scattered Clouds
8:55 PM 46.4 °F 40.1 °F 32.0 °F 57% 29.51 in 10.0 mi SW 15.0 mph 21.9 mph N/A   Scattered Clouds
9:15 PM 46.4 °F 40.4 °F 32.0 °F 57% 29.52 in 10.0 mi SW 13.8 mph 26.5 mph N/A   Scattered Clouds
9:35 PM 44.6 °F 36.9 °F 33.8 °F 66% 29.53 in 10.0 mi SW 18.4 mph 26.5 mph N/A   Mostly Cloudy
9:55 PM 44.6 °F 37.4 °F 35.6 °F 71% 29.54 in 10.0 mi SW 16.1 mph 25.3 mph N/A   Mostly Cloudy
10:15 PM 42.8 °F 33.8 °F 39.2 °F 87% 29.55 in 7.0 mi SW 21.9 mph 31.1 mph N/A   Overcast
10:35 PM 41.0 °F 31.9 °F 37.4 °F 87% 29.56 in 10.0 mi SW 19.6 mph 29.9 mph N/A   Mostly Cloudy
10:55 PM 41.0 °F 31.1 °F 37.4 °F 87% 29.56 in 10.0 mi WSW 23.0 mph 32.2 mph N/A   Overcast
11:15 PM 39.2 °F 30.5 °F 35.6 °F 87% 29.56 in 10.0 mi WSW 16.1 mph 25.3 mph N/A   Overcast
11:35 PM 39.2 °F 29.8 °F 35.6 °F 87% 29.56 in 10.0 mi WSW 18.4 mph 27.6 mph N/A   Overcast
11:55 PM 41.0 °F 31.9 °F 35.6 °F 81% 29.56 in 10.0 mi WSW 19.6 mph 24.2 mph N/A   Overcast